Terminal Aerodrome Forecast
Issued by NWS Bismarck, ND

Home | Current Version | Previous Version | Text Only | Print | Product List | Glossary On
Versions: 1 2 3 4 5 6 7 8 9 10 11 12 13 14 15 16 17 18 19 20 21 22 23
000
FTUS43 KBIS 012029 AAB
TAFBIS
TAF AMD
KBIS 012029Z 0120/0218 31007KT P6SM FEW025 SCT250
      TEMPO 0120/0123 23006KT BKN025 BKN110
     FM012300 16006KT P6SM BKN025 OVC060
     FM020100 14007KT 2SM -SN BKN020 OVC035
     FM020400 VRB06KT 1SM -SN SCT005 OVC010
     FM020900 32011KT P6SM -SHSN BKN009 OVC015
     FM021300 36006KT P6SM BKN015 OVC020=

USA.gov is the U.S. government's official web portal to all federal, state and local government web resources and services.